• In United Kingdom
  • List of Countries
  • For 7 days
  • Water Temperature
  • Satellite Maps
  • Weather Map
  • Weather Widgets
  • user-avatar
    Login

    Hourly Weather Man

    Today, 18 August, Saturday

    Time Temperature Precipitation Wind Pressure Humidity
    00:00 +23°C° 0.1 mm 2 mps 727 mmHg 98%
    01:00 +23°C° 0.1 mm 2 mps 727 mmHg 98%
    02:00 +23°C° 0.1 mm 2 mps 727 mmHg 98%
    03:00 +23°C° 0.1 mm 2 mps 727 mmHg 98%
    04:00 +23°C° 0.1 mm 2 mps 727 mmHg 98%
    05:00 +23°C° 0 mm 1 mps 726 mmHg 98%
    06:00 +23°C° 0.1 mm 1 mps 727 mmHg 96%
    07:00 +24°C° 0.1 mm 2 mps 727 mmHg 95%
    08:00 +24°C° 0.1 mm 2 mps 727 mmHg 93%
    09:00 +25°C° 0.3 mm 2 mps 727 mmHg 89%
    10:00 +26°C° 0.3 mm 2 mps 727 mmHg 85%
    11:00 +27°C° 0.3 mm 2 mps 727 mmHg 81%
    12:00 +28°C° 0.2 mm 2 mps 726 mmHg 78%
    13:00 +29°C° 0.2 mm 2 mps 726 mmHg 75%
    14:00 +29°C° 0.2 mm 2 mps 725 mmHg 72%
    15:00 +28°C° 2.2 mm 1 mps 725 mmHg 80%
    16:00 +27°C° 2.2 mm 1 mps 725 mmHg 88%
    17:00 +25°C° 2.2 mm 1 mps 725 mmHg 95%
    18:00 +25°C° 2.4 mm 1 mps 726 mmHg 96%
    19:00 +24°C° 2.4 mm 1 mps 726 mmHg 97%
    20:00 +24°C° 2.4 mm 2 mps 727 mmHg 97%
    21:00 +23°C° 1.3 mm 2 mps 727 mmHg 98%
    22:00 +23°C° 1.3 mm 2 mps 727 mmHg 98%
    23:00 +23°C° 1.3 mm 2 mps 727 mmHg 98%

    Tomorrow, 19 August, Sunday

    Time Temperature Precipitation Wind Pressure Humidity
    00:00 +23°C° 1 mm 2 mps 727 mmHg 98%
    01:00 +23°C° 1 mm 2 mps 726 mmHg 98%
    02:00 +23°C° 1 mm 2 mps 726 mmHg 98%
    03:00 +23°C° 0.7 mm 2 mps 726 mmHg 99%
    04:00 +23°C° 0.7 mm 2 mps 726 mmHg 99%
    05:00 +23°C° 0.7 mm 2 mps 726 mmHg 99%
    06:00 +23°C° 0.5 mm 1 mps 727 mmHg 98%
    07:00 +23°C° 0.5 mm 1 mps 727 mmHg 98%
    08:00 +24°C° 0.5 mm 1 mps 727 mmHg 98%
    09:00 +24°C° 1.1 mm 1 mps 727 mmHg 98%
    10:00 +24°C° 1.1 mm 1 mps 728 mmHg 97%
    11:00 +24°C° 1.1 mm 1 mps 728 mmHg 97%
    12:00 +24°C° 0.8 mm 2 mps 727 mmHg 96%
    13:00 +24°C° 0.8 mm 2 mps 727 mmHg 95%
    14:00 +24°C° 0.8 mm 2 mps 726 mmHg 95%
    15:00 +24°C° 0.4 mm 2 mps 726 mmHg 94%
    16:00 +24°C° 0.4 mm 2 mps 726 mmHg 94%
    17:00 +24°C° 0.4 mm 2 mps 726 mmHg 94%
    18:00 +24°C° 0.4 mm 2 mps 727 mmHg 95%
    19:00 +23°C° 0.4 mm 2 mps 727 mmHg 97%
    20:00 +23°C° 0.4 mm 1 mps 728 mmHg 98%
    21:00 +23°C° 0.2 mm 1 mps 728 mmHg 98%
    22:00 +23°C° 0.2 mm 1 mps 728 mmHg 98%
    23:00 +23°C° 0.2 mm 1 mps 728 mmHg 99%

    Day after tomorrow, 20 August, Monday

    Time Temperature Precipitation Wind Pressure Humidity
    00:00 +23°C° 0.3 mm 1 mps 728 mmHg 99%
    01:00 +23°C° 0.3 mm 1 mps 727 mmHg 99%
    02:00 +22°C° 0.3 mm 1 mps 727 mmHg 99%
    03:00 +22°C° 0.1 mm 1 mps 727 mmHg 99%
    04:00 +22°C° 0.1 mm 1 mps 727 mmHg 99%
    05:00 +22°C° 0.1 mm 1 mps 727 mmHg 99%
    06:00 +23°C° 0.1 mm 1 mps 728 mmHg 97%
    07:00 +23°C° 0.1 mm 1 mps 728 mmHg 96%
    08:00 +24°C° 0.1 mm 2 mps 729 mmHg 94%
    09:00 +25°C° 0.1 mm 2 mps 728 mmHg 88%
    10:00 +26°C° 0.1 mm 2 mps 728 mmHg 82%
    11:00 +28°C° 0.1 mm 2 mps 728 mmHg 75%
    12:00 +28°C° 0.1 mm 2 mps 728 mmHg 70%
    13:00 +29°C° 0.1 mm 2 mps 727 mmHg 65%
    14:00 +30°C° 0.1 mm 2 mps 726 mmHg 60%
    15:00 +29°C° 0.4 mm 2 mps 726 mmHg 69%
    16:00 +28°C° 0.4 mm 2 mps 726 mmHg 77%
    17:00 +26°C° 0.4 mm 2 mps 726 mmHg 86%
    18:00 +25°C° 0.1 mm 1 mps 727 mmHg 89%
    19:00 +24°C° 0.1 mm 1 mps 727 mmHg 93%
    20:00 +23°C° 0.1 mm 1 mps 728 mmHg 96%
    21:00 +23°C° 0 mm 1 mps 728 mmHg 97%
    22:00 +23°C° 0 mm 1 mps 728 mmHg 97%
    23:00 +22°C° 0 mm 1 mps 729 mmHg 98%

    21 August, Tuesday

    Time Temperature Precipitation Wind Pressure Humidity
    00:00 +22°C° 0.1 mm 1 mps 728 mmHg 98%
    01:00 +22°C° 0.1 mm 1 mps 728 mmHg 98%
    02:00 +22°C° 0.1 mm 1 mps 727 mmHg 99%
    03:00 +22°C° 0 mm 1 mps 727 mmHg 99%
    04:00 +22°C° 0 mm 1 mps 727 mmHg 99%
    05:00 +22°C° 0 mm 1 mps 727 mmHg 99%
    06:00 +23°C° 0 mm 1 mps 728 mmHg 96%
    07:00 +23°C° 0 mm 1 mps 728 mmHg 94%
    08:00 +24°C° 0 mm 1 mps 729 mmHg 92%
    09:00 +25°C° 0 mm 1 mps 729 mmHg 86%
    10:00 +26°C° 0 mm 1 mps 728 mmHg 79%
    11:00 +27°C° 0 mm 1 mps 728 mmHg 73%
    12:00 +28°C° 0 mm 1 mps 728 mmHg 72%
    13:00 +28°C° 0 mm 1 mps 727 mmHg 71%
    14:00 +28°C° 0 mm 1 mps 726 mmHg 70%
    15:00 +28°C° 0.1 mm 1 mps 726 mmHg 73%
    16:00 +28°C° 0.1 mm 1 mps 726 mmHg 77%
    17:00 +27°C° 0.1 mm 1 mps 726 mmHg 80%
    18:00 +26°C° 0 mm 1 mps 727 mmHg 84%
    19:00 +25°C° 0 mm 1 mps 727 mmHg 89%
    20:00 +24°C° 0 mm 1 mps 728 mmHg 93%
    21:00 +23°C° 0 mm 1 mps 728 mmHg 95%
    22:00 +23°C° 0 mm 1 mps 728 mmHg 96%
    23:00 +23°C° 0 mm 1 mps 728 mmHg 97%

    22 August, Wednesday

    Time Temperature Precipitation Wind Pressure Humidity
    00:00 +22°C° 0 mm 1 mps 727 mmHg 98%
    01:00 +22°C° 0 mm 1 mps 727 mmHg 98%
    02:00 +22°C° 0 mm 1 mps 726 mmHg 98%
    03:00 +22°C° 0 mm 1 mps 726 mmHg 98%
    04:00 +23°C° 0 mm 1 mps 727 mmHg 97%
    05:00 +23°C° 0 mm 1 mps 727 mmHg 96%
    06:00 +23°C° 0 mm 1 mps 727 mmHg 94%
    07:00 +24°C° 0 mm 1 mps 728 mmHg 92%
    08:00 +24°C° 0 mm 1 mps 729 mmHg 90%
    09:00 +25°C° 0.1 mm 1 mps 728 mmHg 86%
    10:00 +26°C° 0.1 mm 1 mps 728 mmHg 82%
    11:00 +27°C° 0.1 mm 1 mps 728 mmHg 78%
    12:00 +28°C° 0 mm 1 mps 727 mmHg 73%
    13:00 +28°C° 0 mm 1 mps 727 mmHg 68%
    14:00 +29°C° 0 mm 1 mps 726 mmHg 63%
    15:00 +29°C° 0 mm 1 mps 726 mmHg 66%
    16:00 +29°C° 0 mm 1 mps 726 mmHg 70%
    17:00 +28°C° 0 mm 1 mps 726 mmHg 73%
    18:00 +27°C° 0.2 mm 1 mps 726 mmHg 79%
    19:00 +26°C° 0.2 mm 1 mps 727 mmHg 85%
    20:00 +24°C° 0.2 mm 1 mps 728 mmHg 90%
    21:00 +24°C° 0.9 mm 1 mps 728 mmHg 92%
    22:00 +24°C° 0.9 mm 1 mps 728 mmHg 94%
    23:00 +23°C° 0.9 mm 1 mps 728 mmHg 96%

    23 August, Thursday

    Time Temperature Precipitation Wind Pressure Humidity
    00:00 +23°C° 0.2 mm 1 mps 727 mmHg 97%
    01:00 +23°C° 0.2 mm 1 mps 727 mmHg 97%
    02:00 +23°C° 0.2 mm 1 mps 726 mmHg 97%
    03:00 +23°C° 0.1 mm 1 mps 726 mmHg 97%
    04:00 +23°C° 0.1 mm 1 mps 727 mmHg 97%
    05:00 +23°C° 0.1 mm 1 mps 727 mmHg 98%
    06:00 +24°C° 0.1 mm 1 mps 727 mmHg 95%
    07:00 +24°C° 0.1 mm 1 mps 728 mmHg 93%
    08:00 +25°C° 0.1 mm 1 mps 728 mmHg 90%
    09:00 +26°C° 0.1 mm 1 mps 728 mmHg 85%
    10:00 +27°C° 0.1 mm 1 mps 728 mmHg 79%
    11:00 +28°C° 0.1 mm 1 mps 727 mmHg 73%
    12:00 +29°C° 1 mm 1 mps 726 mmHg 73%
    13:00 +30°C° 1 mm 1 mps 725 mmHg 73%
    14:00 +30°C° 1 mm 1 mps 724 mmHg 73%
    15:00 +29°C° 1.9 mm 1 mps 724 mmHg 80%
    16:00 +28°C° 1.9 mm 1 mps 725 mmHg 88%
    17:00 +26°C° 1.9 mm 1 mps 725 mmHg 95%
    18:00 +26°C° 3 mm 1 mps 726 mmHg 95%
    19:00 +25°C° 3 mm 1 mps 726 mmHg 96%
    20:00 +24°C° 3 mm 1 mps 727 mmHg 97%
    21:00 +24°C° 2.8 mm 1 mps 727 mmHg 97%
    22:00 +24°C° 2.8 mm 1 mps 727 mmHg 98%
    23:00 +24°C° 2.8 mm 1 mps 727 mmHg 98%
    Show more